Kangerlussuaq, Greenland

2:13 AM -03 on November 20, 2017 (GMT -0300)
Kangerlussuaq

Weather History for BGSF - February, 2013

Change the Weather History Date:

Saturday, February 23, 2013

  Actual Average Record
Temperature  
Mean Temperature -20 °F -  
Max Temperature -14 °F 10 °F 48 °F (2005)
Min Temperature -26 °F -9 °F -41 °F (2002)
Degree Days  
Heating Degree Days 85    
Moisture  
Dew Point -30 °F    
Average Humidity 64    
Maximum Humidity 76    
Minimum Humidity 35    
Precipitation  
Precipitation 0.00 in 0.01 in - ()
Sea Level Pressure  
Sea Level Pressure 30.11 in    
Wind  
Wind Speed 7 mph ()    
Max Wind Speed 9 mph    
Max Gust Speed -    
Visibility 6.3 miles    
Events      
Averages and records for this station are not official NWS values.
T = Trace of Precipitation, MM = Missing Value Source: Averaged Metar Reports

Daily Weather History Graph

Daily Weather History Graph

Search for Another Location

Airport or City:

Trip Planner

Search our weather history database for the weather conditions in past years. The results will help you decide how hot, cold, wet, or windy it might be!

Date:

Astronomy

Feb. 23, 2013 Rise Set
Actual Time 8:01 AM -03 5:12 PM -03
Civil Twilight 7:06 AM -03 6:07 PM -03
Nautical Twilight 6:04 AM -03 7:09 PM -03
Astronomical Twilight 5:02 AM -03 8:12 PM -03
Moon 2:42 PM -03 (2/23) 7:00 AM -03 (2/23)
Length of Visible Light 11h 01m
Length of Day
9h 10m
Waxing Gibbous, 95% of the Moon is Illuminated
Feb 23
Waxing Gibbous
Feb 25
Full
Mar 4
Last Quarter
Mar 11
New
Mar 19
First Quarter

Hourly Weather History & Observations

Time (-03) Temp. Windchill Dew Point Humidity Pressure Visibility Wind Dir Wind Speed Gust Speed Precip Events Conditions
12:00 AM -24 °F - -32 °F 48% 30.20 in 31 mi NE 6.9 mph - -   Partly Cloudy
12:20 AM -22.0 °F -39.4 °F -29.2 °F 69% 30.15 in 6.2 mi NE 6.9 mph - N/A   Mostly Cloudy
12:50 AM -23.8 °F -43.2 °F -31.0 °F 69% 30.15 in 6.2 mi ENE 8.1 mph - N/A   Partly Cloudy
1:20 AM -23.8 °F -41.6 °F -31.0 °F 69% 30.12 in 6.2 mi NE 6.9 mph - N/A   Partly Cloudy
1:50 AM -23.8 °F -43.2 °F -31.0 °F 69% 30.12 in 6.2 mi NE 8.1 mph - N/A   Mostly Cloudy
2:20 AM -23.8 °F -43.2 °F -31.0 °F 69% 30.12 in 6.2 mi NE 8.1 mph - N/A   Partly Cloudy
2:50 AM -23.8 °F -43.2 °F -31.0 °F 69% 30.12 in 6.2 mi ENE 8.1 mph - N/A   Mostly Cloudy
3:00 AM -22 °F - -31 °F 46% 30.16 in 31 mi ENE 9.2 mph - -   Mostly Cloudy
3:20 AM -25.6 °F -45.4 °F -32.8 °F 69% 30.09 in 6.2 mi NE 8.1 mph - N/A   Overcast
3:50 AM -23.8 °F -43.2 °F -31.0 °F 69% 30.09 in 6.2 mi ENE 8.1 mph - N/A   Mostly Cloudy
4:20 AM -23.8 °F -43.2 °F -31.0 °F 69% 30.09 in 6.2 mi ENE 8.1 mph - N/A   Overcast
4:50 AM -25.6 °F -45.4 °F -32.8 °F 69% 30.09 in 6.2 mi ENE 8.1 mph - N/A   Mostly Cloudy
5:20 AM -25.6 °F -43.8 °F -32.8 °F 69% 30.09 in 6.2 mi ENE 6.9 mph - N/A   Partly Cloudy
5:50 AM -25.6 °F -45.4 °F -31.0 °F 76% 30.09 in 6.2 mi ENE 8.1 mph - N/A   Partly Cloudy
6:00 AM -26 °F - -35 °F 45% 30.13 in 25 mi ENE 8.1 mph - -   Scattered Clouds
6:20 AM -25.6 °F -46.8 °F -31.0 °F 76% 30.09 in 6.2 mi ENE 9.2 mph - N/A   Unknown
6:50 AM -25.6 °F -46.8 °F -31.0 °F 76% 30.09 in 6.2 mi NE 9.2 mph - N/A   Partly Cloudy
7:20 AM -25.6 °F -45.4 °F -31.0 °F 76% 30.09 in 6.2 mi NE 8.1 mph - N/A   Partly Cloudy
7:50 AM -23.8 °F -43.2 °F -31.0 °F 69% 30.09 in 6.2 mi ENE 8.1 mph - N/A   Partly Cloudy
8:20 AM -23.8 °F -43.2 °F -31.0 °F 69% 30.09 in 6.2 mi ENE 8.1 mph - N/A   Scattered Clouds
8:50 AM -22.0 °F -39.4 °F -29.2 °F 69% 30.06 in 5.6 mi ENE 6.9 mph - N/A   Mostly Cloudy
9:00 AM -22 °F - -31 °F 47% 30.13 in 6 mi ENE 6.9 mph - -   Partly Cloudy
9:50 AM -22.0 °F -39.4 °F -27.4 °F 76% 30.06 in 6.2 mi ENE 6.9 mph - N/A   Scattered Clouds
10:50 AM -20.2 °F -37.3 °F -27.4 °F 69% 30.06 in 6.2 mi NE 6.9 mph - N/A   Partly Cloudy
11:50 AM -16.6 °F -31.3 °F -23.8 °F 70% 30.06 in 6.2 mi NE 5.8 mph - N/A   Partly Cloudy
12:00 PM -17 °F - -27 °F 42% 30.11 in 12 mi NE 5.8 mph - -   Scattered Clouds
12:20 PM -16.6 °F -32.9 °F -25.6 °F 64% 30.06 in 6.2 mi ENE 6.9 mph - N/A   Partly Cloudy
12:50 PM -14.8 °F -29.1 °F -25.6 °F 58% 30.06 in 6.2 mi East 5.8 mph - N/A   Partly Cloudy
1:50 PM -14.8 °F -29.1 °F -25.6 °F 58% 30.06 in 6.2 mi ENE 5.8 mph - N/A   Partly Cloudy
2:50 PM -14.8 °F -29.1 °F -25.6 °F 58% 30.06 in 6.2 mi NE 5.8 mph - N/A   Partly Cloudy
3:00 PM -15 °F - -27 °F 35% 30.11 in 25 mi NE 5.8 mph - -   Clear
3:50 PM -14.8 °F -29.1 °F -25.6 °F 58% 30.06 in 6.2 mi NE 5.8 mph - N/A   Partly Cloudy
4:20 PM -16.6 °F -31.3 °F -25.6 °F 64% 30.06 in 6.2 mi NE 5.8 mph - N/A   Partly Cloudy
6:00 PM -20 °F - -30 °F 44% 30.14 in 31 mi ENE 6.9 mph - -  
6:20 PM -22.0 °F -37.7 °F -29.2 °F 69% 30.09 in 6.2 mi NE 5.8 mph - N/A   Unknown
6:50 PM -22.0 °F -37.7 °F -29.2 °F 69% 30.12 in 6.2 mi ENE 5.8 mph - N/A   Unknown
7:20 PM -20.2 °F -38.8 °F -27.4 °F 69% 30.12 in 6.2 mi ENE 8.1 mph - N/A   Partly Cloudy
7:50 PM -20.2 °F -38.8 °F -27.4 °F 69% 30.12 in 6.2 mi NE 8.1 mph - N/A   Partly Cloudy
8:20 PM -20.2 °F -35.5 °F -29.2 °F 63% 30.12 in 6.2 mi NE 5.8 mph - N/A   Unknown
8:50 PM -22.0 °F -37.7 °F -29.2 °F 69% 30.12 in 6.2 mi NE 5.8 mph - N/A   Unknown
9:00 PM -22 °F - -31 °F 45% 30.18 in 31 mi NE 8.1 mph - -  
9:20 PM -22.0 °F -37.7 °F -29.2 °F 69% 30.12 in 6.2 mi NE 5.8 mph - N/A   Unknown
9:50 PM -22.0 °F -39.4 °F -29.2 °F 69% 30.12 in 6.2 mi ENE 6.9 mph - N/A   Unknown
10:20 PM -22.0 °F -37.7 °F -31.0 °F 63% 30.12 in 6.2 mi ENE 5.8 mph - N/A   Unknown
10:50 PM -22.0 °F -41.0 °F -31.0 °F 63% 30.15 in 6.2 mi NE 8.1 mph - N/A   Unknown
11:20 PM -22.0 °F -42.3 °F -31.0 °F 63% 30.15 in 6.2 mi ENE 9.2 mph - N/A   Unknown
11:50 PM -22.0 °F -41.0 °F -31.0 °F 63% 30.12 in 6.2 mi ENE 8.1 mph - N/A   Unknown